Year,Month,Day,Hour,Minute,Value (Times are PST for temperature in C)
2010,02,20,00,00,2.80
2010,02,20,00,01,2.80
2010,02,20,00,02,2.80
2010,02,20,00,03,2.90
2010,02,20,00,04,2.90
2010,02,20,00,05,2.80
2010,02,20,00,06,2.90
2010,02,20,00,07,2.90
2010,02,20,00,08,3.00
2010,02,20,00,09,3.00
2010,02,20,00,10,3.00
2010,02,20,00,11,3.10
2010,02,20,00,12,3.10
2010,02,20,00,13,3.20
2010,02,20,00,14,3.20
2010,02,20,00,15,3.20
2010,02,20,00,16,3.20
2010,02,20,00,17,3.20
2010,02,20,00,18,3.20
2010,02,20,00,19,3.20
2010,02,20,00,20,3.20
2010,02,20,00,21,3.30
2010,02,20,00,22,3.30
2010,02,20,00,23,3.40
2010,02,20,00,24,3.40
2010,02,20,00,25,3.40
2010,02,20,00,26,3.40
2010,02,20,00,27,3.40
2010,02,20,00,28,3.40
2010,02,20,00,29,3.30
2010,02,20,00,30,3.30
2010,02,20,00,31,3.30
2010,02,20,00,32,3.40
2010,02,20,00,33,3.40
2010,02,20,00,34,3.40
2010,02,20,00,35,3.50
2010,02,20,00,36,3.50
2010,02,20,00,37,3.60
2010,02,20,00,38,3.60
2010,02,20,00,39,3.70
2010,02,20,00,40,3.70
2010,02,20,00,41,3.70
2010,02,20,00,42,3.70
2010,02,20,00,43,3.80
2010,02,20,00,44,3.80
2010,02,20,00,45,3.80
2010,02,20,00,46,3.80
2010,02,20,00,47,3.80
2010,02,20,00,48,3.80
2010,02,20,00,49,3.80
2010,02,20,00,50,3.70
2010,02,20,00,51,3.70
2010,02,20,00,52,3.70
2010,02,20,00,53,3.60
2010,02,20,00,54,3.50
2010,02,20,00,55,3.50
2010,02,20,00,56,3.40
2010,02,20,00,57,3.40
2010,02,20,00,58,3.30
2010,02,20,00,59,3.30
2010,02,20,01,00,3.20
2010,02,20,01,01,3.20
2010,02,20,01,02,3.10
2010,02,20,01,03,3.10
2010,02,20,01,04,3.10
2010,02,20,01,05,3.10
2010,02,20,01,06,3.10
2010,02,20,01,07,3.10
2010,02,20,01,08,3.10
2010,02,20,01,09,3.10
2010,02,20,01,10,3.20
2010,02,20,01,11,3.20
2010,02,20,01,12,3.20
2010,02,20,01,13,3.20
2010,02,20,01,14,3.20
2010,02,20,01,15,3.20
2010,02,20,01,16,3.20
2010,02,20,01,17,3.20
2010,02,20,01,18,3.20
2010,02,20,01,19,3.20
2010,02,20,01,20,3.10
2010,02,20,01,21,3.10
2010,02,20,01,22,3.10
2010,02,20,01,23,3.00
2010,02,20,01,24,3.00
2010,02,20,01,25,2.90
2010,02,20,01,26,2.90
2010,02,20,01,27,2.90
2010,02,20,01,28,2.80
2010,02,20,01,29,2.80
2010,02,20,01,30,2.90
2010,02,20,01,31,2.90
2010,02,20,01,32,3.00
2010,02,20,01,33,3.10
2010,02,20,01,34,3.10
2010,02,20,01,35,3.10
2010,02,20,01,36,3.10
2010,02,20,01,37,3.00
2010,02,20,01,38,3.00
2010,02,20,01,39,2.90
2010,02,20,01,40,2.90
2010,02,20,01,41,2.80
2010,02,20,01,42,2.80
2010,02,20,01,43,2.70
2010,02,20,01,44,2.70
2010,02,20,01,45,2.60
2010,02,20,01,46,2.60
2010,02,20,01,47,2.60
2010,02,20,01,48,2.60
2010,02,20,01,49,2.60
2010,02,20,01,50,2.60
2010,02,20,01,51,2.50
2010,02,20,01,52,2.50
2010,02,20,01,53,2.50
2010,02,20,01,54,2.50
2010,02,20,01,55,2.50
2010,02,20,01,56,2.50
2010,02,20,01,57,2.40
2010,02,20,01,58,2.40
2010,02,20,01,59,2.40
2010,02,20,02,00,2.40
2010,02,20,02,01,2.30
2010,02,20,02,02,2.30
2010,02,20,02,03,2.30
2010,02,20,02,04,2.30
2010,02,20,02,05,2.30
2010,02,20,02,06,2.30
2010,02,20,02,07,2.30
2010,02,20,02,08,2.20
2010,02,20,02,09,2.20
2010,02,20,02,10,2.20
2010,02,20,02,11,2.20
2010,02,20,02,12,2.10
2010,02,20,02,13,2.10
2010,02,20,02,14,2.10
2010,02,20,02,15,2.20
2010,02,20,02,16,2.20
2010,02,20,02,17,2.20
2010,02,20,02,18,2.20
2010,02,20,02,19,2.20
2010,02,20,02,20,2.20
2010,02,20,02,21,2.20
2010,02,20,02,22,2.20
2010,02,20,02,23,2.20
2010,02,20,02,24,2.20
2010,02,20,02,25,2.20
2010,02,20,02,26,2.20
2010,02,20,02,27,2.20
2010,02,20,02,28,2.20
2010,02,20,02,29,2.10
2010,02,20,02,30,2.10
2010,02,20,02,31,2.10
2010,02,20,02,32,2.10
2010,02,20,02,33,2.10
2010,02,20,02,34,2.00
2010,02,20,02,35,2.00
2010,02,20,02,36,2.00
2010,02,20,02,37,1.90
2010,02,20,02,38,1.90
2010,02,20,02,39,1.90
2010,02,20,02,40,1.90
2010,02,20,02,41,1.90
2010,02,20,02,42,1.90
2010,02,20,02,43,1.80
2010,02,20,02,44,1.80
2010,02,20,02,45,1.80
2010,02,20,02,46,1.80
2010,02,20,02,47,1.80
2010,02,20,02,48,1.80
2010,02,20,02,49,1.80
2010,02,20,02,50,1.80
2010,02,20,02,51,1.80
2010,02,20,02,52,1.80
2010,02,20,02,53,1.80
2010,02,20,02,54,1.70
2010,02,20,02,55,1.70
2010,02,20,02,56,1.70
2010,02,20,02,57,1.70
2010,02,20,02,58,1.70
2010,02,20,02,59,1.70
2010,02,20,03,00,1.70
2010,02,20,03,01,1.60
2010,02,20,03,02,1.60
2010,02,20,03,03,1.60
2010,02,20,03,04,1.60
2010,02,20,03,05,1.60
2010,02,20,03,06,1.60
2010,02,20,03,07,1.60
2010,02,20,03,08,1.60
2010,02,20,03,09,1.60
2010,02,20,03,10,1.60
2010,02,20,03,11,1.50
2010,02,20,03,12,1.50
2010,02,20,03,13,1.60
2010,02,20,03,14,1.60
2010,02,20,03,15,1.60
2010,02,20,03,16,1.60
2010,02,20,03,17,1.60
2010,02,20,03,18,1.60
2010,02,20,03,19,1.60
2010,02,20,03,20,1.60
2010,02,20,03,21,1.60
2010,02,20,03,22,1.60
2010,02,20,03,23,1.50
2010,02,20,03,24,1.50
2010,02,20,03,25,1.40
2010,02,20,03,26,1.40
2010,02,20,03,27,1.30
2010,02,20,03,28,1.30
2010,02,20,03,29,1.30
2010,02,20,03,30,1.30
2010,02,20,03,31,1.30
2010,02,20,03,32,1.30
2010,02,20,03,33,1.30
2010,02,20,03,34,1.30
2010,02,20,03,35,1.30
2010,02,20,03,36,1.30
2010,02,20,03,37,1.30
2010,02,20,03,38,1.30
2010,02,20,03,39,1.30
2010,02,20,03,40,1.30
2010,02,20,03,41,1.30
2010,02,20,03,42,1.30
2010,02,20,03,43,1.30
2010,02,20,03,44,1.30
2010,02,20,03,45,1.30
2010,02,20,03,46,1.30
2010,02,20,03,47,1.30
2010,02,20,03,48,1.30
2010,02,20,03,49,1.30
2010,02,20,03,50,1.30
2010,02,20,03,51,1.30
2010,02,20,03,52,1.30
2010,02,20,03,53,1.40
2010,02,20,03,54,1.40
2010,02,20,03,55,1.40
2010,02,20,03,56,1.40
2010,02,20,03,57,1.40
2010,02,20,03,58,1.40
2010,02,20,03,59,1.40
2010,02,20,04,00,1.40
2010,02,20,04,01,1.40
2010,02,20,04,02,1.30
2010,02,20,04,03,1.30
2010,02,20,04,04,1.30
2010,02,20,04,05,1.30
2010,02,20,04,06,1.30
2010,02,20,04,07,1.40
2010,02,20,04,08,1.40
2010,02,20,04,09,1.40
2010,02,20,04,10,1.30
2010,02,20,04,11,1.30
2010,02,20,04,12,1.30
2010,02,20,04,13,1.30
2010,02,20,04,14,1.30
2010,02,20,04,15,1.30
2010,02,20,04,16,1.30
2010,02,20,04,17,1.30
2010,02,20,04,18,1.30
2010,02,20,04,19,1.30
2010,02,20,04,20,1.30
2010,02,20,04,21,1.30
2010,02,20,04,22,1.30
2010,02,20,04,23,1.30
2010,02,20,04,24,1.30
2010,02,20,04,25,1.30
2010,02,20,04,26,1.30
2010,02,20,04,27,1.30
2010,02,20,04,28,1.30
2010,02,20,04,29,1.30
2010,02,20,04,30,1.30
2010,02,20,04,31,1.30
2010,02,20,04,32,1.20
2010,02,20,04,33,1.20
2010,02,20,04,34,1.20
2010,02,20,04,35,1.20
2010,02,20,04,36,1.20
2010,02,20,04,37,1.20
2010,02,20,04,38,1.20
2010,02,20,04,39,1.30
2010,02,20,04,40,1.30
2010,02,20,04,41,1.30
2010,02,20,04,42,1.30
2010,02,20,04,43,1.30
2010,02,20,04,44,1.30
2010,02,20,04,45,1.30
2010,02,20,04,46,1.30
2010,02,20,04,47,1.30
2010,02,20,04,48,1.30
2010,02,20,04,49,1.30
2010,02,20,04,50,1.30
2010,02,20,04,51,1.30
2010,02,20,04,52,1.30
2010,02,20,04,53,1.30
2010,02,20,04,54,1.30
2010,02,20,04,55,1.30
2010,02,20,04,56,1.30
2010,02,20,04,57,1.30
2010,02,20,04,58,1.30
2010,02,20,04,59,1.30
2010,02,20,05,00,1.30
2010,02,20,05,01,1.30
2010,02,20,05,02,1.30
2010,02,20,05,03,1.20
2010,02,20,05,04,1.20
2010,02,20,05,05,1.20
2010,02,20,05,06,1.20
2010,02,20,05,07,1.20
2010,02,20,05,08,1.20
2010,02,20,05,09,1.20
2010,02,20,05,10,1.10
2010,02,20,05,11,1.10
2010,02,20,05,12,1.10
2010,02,20,05,13,1.10
2010,02,20,05,14,1.10
2010,02,20,05,15,1.10
2010,02,20,05,16,1.10
2010,02,20,05,17,1.10
2010,02,20,05,18,1.00
2010,02,20,05,19,1.00
2010,02,20,05,20,0.90
2010,02,20,05,21,0.90
2010,02,20,05,22,0.80
2010,02,20,05,23,0.80
2010,02,20,05,24,0.80
2010,02,20,05,25,0.90
2010,02,20,05,26,0.90
2010,02,20,05,27,0.90
2010,02,20,05,28,0.90
2010,02,20,05,29,0.90
2010,02,20,05,30,0.90
2010,02,20,05,31,0.90
2010,02,20,05,32,0.90
2010,02,20,05,33,0.90
2010,02,20,05,34,0.90
2010,02,20,05,35,0.90
2010,02,20,05,36,0.90
2010,02,20,05,37,0.90
2010,02,20,05,38,0.90
2010,02,20,05,39,0.90
2010,02,20,05,40,0.90
2010,02,20,05,41,0.90
2010,02,20,05,42,0.90
2010,02,20,05,43,0.90
2010,02,20,05,44,0.90
2010,02,20,05,45,0.90
2010,02,20,05,46,0.90
2010,02,20,05,47,0.90
2010,02,20,05,48,0.90
2010,02,20,05,49,0.90
2010,02,20,05,50,0.90
2010,02,20,05,51,0.90
2010,02,20,05,52,0.90
2010,02,20,05,53,0.90
2010,02,20,05,54,0.90
2010,02,20,05,55,0.90
2010,02,20,05,56,0.90
2010,02,20,05,57,0.90
2010,02,20,05,58,1.00
2010,02,20,05,59,1.00
2010,02,20,06,00,1.00
2010,02,20,06,01,1.10
2010,02,20,06,02,1.10
2010,02,20,06,03,1.10
2010,02,20,06,04,1.00
2010,02,20,06,05,1.00
2010,02,20,06,06,1.00
2010,02,20,06,07,1.00
2010,02,20,06,08,1.00
2010,02,20,06,09,1.00
2010,02,20,06,10,1.00
2010,02,20,06,11,1.00
2010,02,20,06,12,1.00
2010,02,20,06,13,1.10
2010,02,20,06,14,1.10
2010,02,20,06,15,1.20
2010,02,20,06,16,1.20
2010,02,20,06,17,1.20
2010,02,20,06,18,1.20
2010,02,20,06,19,1.20
2010,02,20,06,20,1.20
2010,02,20,06,21,1.20
2010,02,20,06,22,1.20
2010,02,20,06,23,1.20
2010,02,20,06,24,1.20
2010,02,20,06,25,1.10
2010,02,20,06,26,1.10
2010,02,20,06,27,1.10
2010,02,20,06,28,1.00
2010,02,20,06,29,1.00
2010,02,20,06,30,0.90
2010,02,20,06,31,0.90
2010,02,20,06,32,0.80
2010,02,20,06,33,0.80
2010,02,20,06,34,0.80
2010,02,20,06,35,0.80
2010,02,20,06,36,0.70
2010,02,20,06,37,0.70
2010,02,20,06,38,0.70
2010,02,20,06,39,0.70
2010,02,20,06,40,0.70
2010,02,20,06,41,0.70
2010,02,20,06,42,0.70
2010,02,20,06,43,0.70
2010,02,20,06,44,0.70
2010,02,20,06,45,0.70
2010,02,20,06,46,0.70
2010,02,20,06,47,0.70
2010,02,20,06,48,0.70
2010,02,20,06,49,0.70
2010,02,20,06,50,0.70
2010,02,20,06,51,0.70
2010,02,20,06,52,0.70
2010,02,20,06,53,0.70
2010,02,20,06,54,0.70
2010,02,20,06,55,0.70
2010,02,20,06,56,0.70
2010,02,20,06,57,0.70
2010,02,20,06,58,0.70
2010,02,20,06,59,0.70
2010,02,20,07,00,0.70
2010,02,20,07,01,0.70
2010,02,20,07,02,0.80
2010,02,20,07,03,0.80
2010,02,20,07,04,0.80
2010,02,20,07,05,0.80
2010,02,20,07,06,0.80
2010,02,20,07,07,0.80
2010,02,20,07,08,0.80
2010,02,20,07,09,0.80
2010,02,20,07,10,0.80
2010,02,20,07,11,0.80
2010,02,20,07,12,0.80
2010,02,20,07,13,0.80
2010,02,20,07,14,0.80
2010,02,20,07,15,0.80
2010,02,20,07,16,0.80
2010,02,20,07,17,0.90
2010,02,20,07,18,0.90
2010,02,20,07,19,0.90
2010,02,20,07,20,0.90
2010,02,20,07,21,0.90
2010,02,20,07,22,0.90
2010,02,20,07,23,0.90
2010,02,20,07,24,0.90
2010,02,20,07,25,0.90
2010,02,20,07,26,0.90
2010,02,20,07,27,0.90
2010,02,20,07,28,0.90
2010,02,20,07,29,0.90
2010,02,20,07,30,0.90
2010,02,20,07,31,0.90
2010,02,20,07,32,0.90
2010,02,20,07,33,0.80
2010,02,20,07,34,0.80
2010,02,20,07,35,0.80
2010,02,20,07,36,0.80
2010,02,20,07,37,0.80
2010,02,20,07,38,0.80
2010,02,20,07,39,0.90
2010,02,20,07,40,0.90
2010,02,20,07,41,0.90
2010,02,20,07,42,0.90
2010,02,20,07,43,0.90
2010,02,20,07,44,0.90
2010,02,20,07,45,0.90
2010,02,20,07,46,0.90
2010,02,20,07,47,0.90
2010,02,20,07,48,0.90
2010,02,20,07,49,0.90
2010,02,20,07,50,1.00
2010,02,20,07,51,1.00
2010,02,20,07,52,1.00
2010,02,20,07,53,1.10
2010,02,20,07,54,1.10
2010,02,20,07,55,1.10
2010,02,20,07,56,1.10
2010,02,20,07,57,1.10
2010,02,20,07,58,1.20
2010,02,20,07,59,1.20
2010,02,20,08,00,1.20
2010,02,20,08,01,1.20
2010,02,20,08,02,1.20
2010,02,20,08,03,1.30
2010,02,20,08,04,1.30
2010,02,20,08,05,1.30
2010,02,20,08,06,1.30
2010,02,20,08,07,1.30
2010,02,20,08,08,1.30
2010,02,20,08,09,1.20
2010,02,20,08,10,1.20
2010,02,20,08,11,1.20
2010,02,20,08,12,1.20
2010,02,20,08,13,1.20
2010,02,20,08,14,1.30
2010,02,20,08,15,1.30
2010,02,20,08,16,1.30
2010,02,20,08,17,1.30
2010,02,20,08,18,1.30
2010,02,20,08,19,1.30
2010,02,20,08,20,1.40
2010,02,20,08,21,1.40
2010,02,20,08,22,1.40
2010,02,20,08,23,1.40
2010,02,20,08,24,1.40
2010,02,20,08,25,1.50
2010,02,20,08,26,1.50
2010,02,20,08,27,1.60
2010,02,20,08,28,1.70
2010,02,20,08,29,1.70
2010,02,20,08,30,1.70
2010,02,20,08,31,1.70
2010,02,20,08,32,1.80
2010,02,20,08,33,1.90
2010,02,20,08,34,1.90
2010,02,20,08,35,2.00
2010,02,20,08,36,2.10
2010,02,20,08,37,2.20
2010,02,20,08,38,2.20
2010,02,20,08,39,2.30
2010,02,20,08,40,2.30
2010,02,20,08,41,2.30
2010,02,20,08,42,2.30
2010,02,20,08,43,2.30
2010,02,20,08,44,2.30
2010,02,20,08,45,2.30
2010,02,20,08,46,2.40
2010,02,20,08,47,2.40
2010,02,20,08,48,2.40
2010,02,20,08,49,2.40
2010,02,20,08,50,2.40
2010,02,20,08,51,2.40
2010,02,20,08,52,2.40
2010,02,20,08,53,2.40
2010,02,20,08,54,2.50
2010,02,20,08,55,2.50
2010,02,20,08,56,2.50
2010,02,20,08,57,2.60
2010,02,20,08,58,2.60
2010,02,20,08,59,2.60
2010,02,20,09,00,2.70
2010,02,20,09,01,2.80
2010,02,20,09,02,2.90
2010,02,20,09,03,2.90
2010,02,20,09,04,3.00
2010,02,20,09,05,3.10
2010,02,20,09,06,3.20
2010,02,20,09,07,3.40
2010,02,20,09,08,3.50
2010,02,20,09,09,3.50
2010,02,20,09,10,3.60
2010,02,20,09,11,3.60
2010,02,20,09,12,3.60
2010,02,20,09,13,3.60
2010,02,20,09,14,3.50
2010,02,20,09,15,3.50
2010,02,20,09,16,3.50
2010,02,20,09,17,3.60
2010,02,20,09,18,3.60
2010,02,20,09,19,3.60
2010,02,20,09,20,3.60
2010,02,20,09,21,3.70
2010,02,20,09,22,3.70
2010,02,20,09,23,3.80
2010,02,20,09,24,3.80
2010,02,20,09,25,3.90
2010,02,20,09,26,4.00
2010,02,20,09,27,4.10
2010,02,20,09,28,4.20
2010,02,20,09,29,4.20
2010,02,20,09,30,4.30
2010,02,20,09,31,4.40
2010,02,20,09,32,4.50
2010,02,20,09,33,4.50
2010,02,20,09,34,4.60
2010,02,20,09,35,4.70
2010,02,20,09,36,4.80
2010,02,20,09,37,4.90
2010,02,20,09,38,4.90
2010,02,20,09,39,5.00
2010,02,20,09,40,5.10
2010,02,20,09,41,5.10
2010,02,20,09,42,5.20
2010,02,20,09,43,5.30
2010,02,20,09,44,5.30
2010,02,20,09,45,5.40
2010,02,20,09,46,5.50
2010,02,20,09,47,5.50
2010,02,20,09,48,5.50
2010,02,20,09,49,5.60
2010,02,20,09,50,5.60
2010,02,20,09,51,5.60
2010,02,20,09,52,5.70
2010,02,20,09,53,5.70
2010,02,20,09,54,5.80
2010,02,20,09,55,5.80
2010,02,20,09,56,5.80
2010,02,20,09,57,5.90
2010,02,20,09,58,6.00
2010,02,20,09,59,6.00
2010,02,20,10,00,6.10
2010,02,20,10,01,6.10
2010,02,20,10,02,6.20
2010,02,20,10,03,6.30
2010,02,20,10,04,6.30
2010,02,20,10,05,6.30
2010,02,20,10,06,6.40
2010,02,20,10,07,6.40
2010,02,20,10,08,6.40
2010,02,20,10,09,6.50
2010,02,20,10,10,6.50
2010,02,20,10,11,6.60
2010,02,20,10,12,6.60
2010,02,20,10,13,6.60
2010,02,20,10,14,6.70
2010,02,20,10,15,6.70
2010,02,20,10,16,6.70
2010,02,20,10,17,6.70
2010,02,20,10,18,6.70
2010,02,20,10,19,6.70
2010,02,20,10,20,6.70
2010,02,20,10,21,6.70
2010,02,20,10,22,6.70
2010,02,20,10,23,6.70
2010,02,20,10,24,6.70
2010,02,20,10,25,6.80
2010,02,20,10,26,6.80
2010,02,20,10,27,6.80
2010,02,20,10,28,6.80
2010,02,20,10,29,6.80
2010,02,20,10,30,6.80
2010,02,20,10,31,6.80
2010,02,20,10,32,6.80
2010,02,20,10,33,6.80
2010,02,20,10,34,6.80
2010,02,20,10,35,6.80
2010,02,20,10,36,6.80
2010,02,20,10,37,6.80
2010,02,20,10,38,6.80
2010,02,20,10,39,6.80
2010,02,20,10,40,6.90
2010,02,20,10,41,6.90
2010,02,20,10,42,6.90
2010,02,20,10,43,6.90
2010,02,20,10,44,7.00
2010,02,20,10,45,7.00
2010,02,20,10,46,7.00
2010,02,20,10,47,7.00
2010,02,20,10,48,7.00
2010,02,20,10,49,7.10
2010,02,20,10,50,7.10
2010,02,20,10,51,7.10
2010,02,20,10,52,7.10
2010,02,20,10,53,7.20
2010,02,20,10,54,7.20
2010,02,20,10,55,7.20
2010,02,20,10,56,7.20
2010,02,20,10,57,7.30
2010,02,20,10,58,7.30
2010,02,20,10,59,7.40
2010,02,20,11,00,7.40
2010,02,20,11,01,7.40
2010,02,20,11,02,7.40
2010,02,20,11,03,7.40
2010,02,20,11,04,7.40
2010,02,20,11,05,7.40
2010,02,20,11,06,7.40
2010,02,20,11,07,7.40
2010,02,20,11,08,7.50
2010,02,20,11,09,7.50
2010,02,20,11,10,7.50
2010,02,20,11,11,7.50
2010,02,20,11,12,7.50
2010,02,20,11,13,7.50
2010,02,20,11,14,7.60
2010,02,20,11,15,7.60
2010,02,20,11,16,7.60
2010,02,20,11,17,7.60
2010,02,20,11,18,7.60
2010,02,20,11,19,7.70
2010,02,20,11,20,7.70
2010,02,20,11,21,7.70
2010,02,20,11,22,7.70
2010,02,20,11,23,7.80
2010,02,20,11,24,7.80
2010,02,20,11,25,7.80
2010,02,20,11,26,7.90
2010,02,20,11,27,7.90
2010,02,20,11,28,8.00
2010,02,20,11,29,8.00
2010,02,20,11,30,8.10
2010,02,20,11,31,8.10
2010,02,20,11,32,8.10
2010,02,20,11,33,8.20
2010,02,20,11,34,8.20
2010,02,20,11,35,8.20
2010,02,20,11,36,8.20
2010,02,20,11,37,8.20
2010,02,20,11,38,8.30
2010,02,20,11,39,8.30
2010,02,20,11,40,8.30
2010,02,20,11,41,8.40
2010,02,20,11,42,8.40
2010,02,20,11,43,8.40
2010,02,20,11,44,8.50
2010,02,20,11,45,8.50
2010,02,20,11,46,8.50
2010,02,20,11,47,8.60
2010,02,20,11,48,8.60
2010,02,20,11,49,8.60
2010,02,20,11,50,8.60
2010,02,20,11,51,8.60
2010,02,20,11,52,8.60
2010,02,20,11,53,8.70
2010,02,20,11,54,8.70
2010,02,20,11,55,8.70
2010,02,20,11,56,8.70
2010,02,20,11,57,8.80
2010,02,20,11,58,8.70
2010,02,20,11,59,8.70
2010,02,20,12,00,8.70
2010,02,20,12,01,8.70
2010,02,20,12,02,8.70
2010,02,20,12,03,8.70
2010,02,20,12,04,8.70
2010,02,20,12,05,8.70
2010,02,20,12,06,8.70
2010,02,20,12,07,8.70
2010,02,20,12,08,8.80
2010,02,20,12,09,8.80
2010,02,20,12,10,8.80
2010,02,20,12,11,8.80
2010,02,20,12,12,8.80
2010,02,20,12,13,8.80
2010,02,20,12,14,8.90
2010,02,20,12,15,8.90
2010,02,20,12,16,8.90
2010,02,20,12,17,8.90
2010,02,20,12,18,8.90
2010,02,20,12,19,9.00
2010,02,20,12,20,9.00
2010,02,20,12,21,9.10
2010,02,20,12,22,9.10
2010,02,20,12,23,9.20
2010,02,20,12,24,9.20
2010,02,20,12,25,9.30
2010,02,20,12,26,9.30
2010,02,20,12,27,9.30
2010,02,20,12,28,9.40
2010,02,20,12,29,9.40
2010,02,20,12,30,9.50
2010,02,20,12,31,9.50
2010,02,20,12,32,9.60
2010,02,20,12,33,9.60
2010,02,20,12,34,9.60
2010,02,20,12,35,9.50
2010,02,20,12,36,9.50
2010,02,20,12,37,9.40
2010,02,20,12,38,9.40
2010,02,20,12,39,9.30
2010,02,20,12,40,9.30
2010,02,20,12,41,9.40
2010,02,20,12,42,9.30
2010,02,20,12,43,9.30
2010,02,20,12,44,9.30
2010,02,20,12,45,9.30
2010,02,20,12,46,9.30
2010,02,20,12,47,9.30
2010,02,20,12,48,9.30
2010,02,20,12,49,9.30
2010,02,20,12,50,9.20
2010,02,20,12,51,9.20
2010,02,20,12,52,9.20
2010,02,20,12,53,9.20
2010,02,20,12,54,9.20
2010,02,20,12,55,9.30
2010,02,20,12,56,9.30
2010,02,20,12,57,9.30
2010,02,20,12,58,9.40
2010,02,20,12,59,9.40
2010,02,20,13,00,9.40
2010,02,20,13,01,9.40
2010,02,20,13,02,9.50
2010,02,20,13,03,9.50
2010,02,20,13,04,9.60
2010,02,20,13,05,9.60
2010,02,20,13,06,9.60
2010,02,20,13,07,9.60
2010,02,20,13,08,9.60
2010,02,20,13,09,9.70
2010,02,20,13,10,9.80
2010,02,20,13,11,9.90
2010,02,20,13,12,9.90
2010,02,20,13,13,10.00
2010,02,20,13,14,10.10
2010,02,20,13,15,10.10
2010,02,20,13,16,10.10
2010,02,20,13,17,10.10
2010,02,20,13,18,10.10
2010,02,20,13,19,10.00
2010,02,20,13,20,10.10
2010,02,20,13,21,10.10
2010,02,20,13,22,10.10
2010,02,20,13,23,10.10
2010,02,20,13,24,10.00
2010,02,20,13,25,10.00
2010,02,20,13,26,10.00
2010,02,20,13,27,10.00
2010,02,20,13,28,10.00
2010,02,20,13,29,10.00
2010,02,20,13,30,10.00
2010,02,20,13,31,10.10
2010,02,20,13,32,10.10
2010,02,20,13,33,10.10
2010,02,20,13,34,10.10
2010,02,20,13,35,10.10
2010,02,20,13,36,10.10
2010,02,20,13,37,10.10
2010,02,20,13,38,10.10
2010,02,20,13,39,10.10
2010,02,20,13,40,10.10
2010,02,20,13,41,10.10
2010,02,20,13,42,10.10
2010,02,20,13,43,10.20
2010,02,20,13,44,10.20
2010,02,20,13,45,10.20
2010,02,20,13,46,10.20
2010,02,20,13,47,10.20
2010,02,20,13,48,10.20
2010,02,20,13,49,10.20
2010,02,20,13,50,10.20
2010,02,20,13,51,10.20
2010,02,20,13,52,10.20
2010,02,20,13,53,10.30
2010,02,20,13,54,10.30
2010,02,20,13,55,10.30
2010,02,20,13,56,10.30
2010,02,20,13,57,10.30
2010,02,20,13,58,10.20
2010,02,20,13,59,10.20
2010,02,20,14,00,10.20
2010,02,20,14,01,10.30
2010,02,20,14,02,10.30
2010,02,20,14,03,10.30
2010,02,20,14,04,10.40
2010,02,20,14,05,10.40
2010,02,20,14,06,10.50
2010,02,20,14,07,10.50
2010,02,20,14,08,10.50
2010,02,20,14,09,10.60
2010,02,20,14,10,10.60
2010,02,20,14,11,10.70
2010,02,20,14,12,10.70
2010,02,20,14,13,10.70
2010,02,20,14,14,10.70
2010,02,20,14,15,10.70
2010,02,20,14,16,10.70
2010,02,20,14,17,10.70
2010,02,20,14,18,10.70
2010,02,20,14,19,10.80
2010,02,20,14,20,10.80
2010,02,20,14,21,10.80
2010,02,20,14,22,10.80
2010,02,20,14,23,10.80
2010,02,20,14,24,10.90
2010,02,20,14,25,10.90
2010,02,20,14,26,10.90
2010,02,20,14,27,10.90
2010,02,20,14,28,10.90
2010,02,20,14,29,10.90
2010,02,20,14,30,11.00
2010,02,20,14,31,11.00
2010,02,20,14,32,11.00
2010,02,20,14,33,11.00
2010,02,20,14,34,10.90
2010,02,20,14,35,10.90
2010,02,20,14,36,10.90
2010,02,20,14,37,10.90
2010,02,20,14,38,10.90
2010,02,20,14,39,10.90
2010,02,20,14,40,10.90
2010,02,20,14,41,10.90
2010,02,20,14,42,10.90
2010,02,20,14,43,10.90
2010,02,20,14,44,10.90
2010,02,20,14,45,10.90
2010,02,20,14,46,11.00
2010,02,20,14,47,11.00
2010,02,20,14,48,11.00
2010,02,20,14,49,11.00
2010,02,20,14,50,11.00
2010,02,20,14,51,11.00
2010,02,20,14,52,11.10
2010,02,20,14,53,11.10
2010,02,20,14,54,11.10
2010,02,20,14,55,11.10
2010,02,20,14,56,11.10
2010,02,20,14,57,11.20
2010,02,20,14,58,11.20
2010,02,20,14,59,11.20
2010,02,20,15,00,11.20
2010,02,20,15,01,11.20
2010,02,20,15,02,11.20
2010,02,20,15,03,11.30
2010,02,20,15,04,11.30
2010,02,20,15,05,11.30
2010,02,20,15,06,11.30
2010,02,20,15,07,11.30
2010,02,20,15,08,11.30
2010,02,20,15,09,11.30
2010,02,20,15,10,11.30
2010,02,20,15,11,11.30
2010,02,20,15,12,11.30
2010,02,20,15,13,11.30
2010,02,20,15,14,11.30
2010,02,20,15,15,11.30
2010,02,20,15,16,11.30
2010,02,20,15,17,11.30
2010,02,20,15,18,11.30
2010,02,20,15,19,11.40
2010,02,20,15,20,11.40
2010,02,20,15,21,11.40
2010,02,20,15,22,11.40
2010,02,20,15,23,11.40
2010,02,20,15,24,11.50
2010,02,20,15,25,11.60
2010,02,20,15,26,11.60
2010,02,20,15,27,11.70
2010,02,20,15,28,11.70
2010,02,20,15,29,11.70
2010,02,20,15,30,11.70
2010,02,20,15,31,11.70
2010,02,20,15,32,11.70
2010,02,20,15,33,11.70
2010,02,20,15,34,11.70
2010,02,20,15,35,11.70
2010,02,20,15,36,11.70
2010,02,20,15,37,11.70
2010,02,20,15,38,11.70
2010,02,20,15,39,11.60
2010,02,20,15,40,11.60
2010,02,20,15,41,11.60
2010,02,20,15,42,11.60
2010,02,20,15,43,11.70
2010,02,20,15,44,11.70
2010,02,20,15,45,11.70
2010,02,20,15,46,11.70
2010,02,20,15,47,11.70
2010,02,20,15,48,11.60
2010,02,20,15,49,11.60
2010,02,20,15,50,11.60
2010,02,20,15,51,11.60
2010,02,20,15,52,11.50
2010,02,20,15,53,11.50
2010,02,20,15,54,11.40
2010,02,20,15,55,11.40
2010,02,20,15,56,11.40
2010,02,20,15,57,11.40
2010,02,20,15,58,11.40
2010,02,20,15,59,11.40
2010,02,20,16,00,11.50
2010,02,20,16,01,11.50
2010,02,20,16,02,11.40
2010,02,20,16,03,11.40
2010,02,20,16,04,11.40
2010,02,20,16,05,11.40
2010,02,20,16,06,11.40
2010,02,20,16,07,11.40
2010,02,20,16,08,11.40
2010,02,20,16,09,11.40
2010,02,20,16,10,11.40
2010,02,20,16,11,11.40
2010,02,20,16,12,11.30
2010,02,20,16,13,11.30
2010,02,20,16,14,11.40
2010,02,20,16,15,11.40
2010,02,20,16,16,11.40
2010,02,20,16,17,11.40
2010,02,20,16,18,11.40
2010,02,20,16,19,11.40
2010,02,20,16,20,11.30
2010,02,20,16,21,11.30
2010,02,20,16,22,11.30
2010,02,20,16,23,11.30
2010,02,20,16,24,11.30
2010,02,20,16,25,11.20
2010,02,20,16,26,11.20
2010,02,20,16,27,11.20
2010,02,20,16,28,11.20
2010,02,20,16,29,11.30
2010,02,20,16,30,11.30
2010,02,20,16,31,11.40
2010,02,20,16,32,11.50
2010,02,20,16,33,11.50
2010,02,20,16,34,11.60
2010,02,20,16,35,11.70
2010,02,20,16,36,11.70
2010,02,20,16,37,11.80
2010,02,20,16,38,11.80
2010,02,20,16,39,11.80
2010,02,20,16,40,11.80
2010,02,20,16,41,11.80
2010,02,20,16,42,11.80
2010,02,20,16,43,11.80
2010,02,20,16,44,11.70
2010,02,20,16,45,11.70
2010,02,20,16,46,11.70
2010,02,20,16,47,11.60
2010,02,20,16,48,11.60
2010,02,20,16,49,11.60
2010,02,20,16,50,11.50
2010,02,20,16,51,11.40
2010,02,20,16,52,11.30
2010,02,20,16,53,11.20
2010,02,20,16,54,11.20
2010,02,20,16,55,11.10
2010,02,20,16,56,11.00
2010,02,20,16,57,10.90
2010,02,20,16,58,10.80
2010,02,20,16,59,10.70
2010,02,20,17,00,10.60
2010,02,20,17,01,10.50
2010,02,20,17,02,10.40
2010,02,20,17,03,10.30
2010,02,20,17,04,10.20
2010,02,20,17,05,10.10
2010,02,20,17,06,10.00
2010,02,20,17,07,9.90
2010,02,20,17,08,9.80
2010,02,20,17,09,9.70
2010,02,20,17,10,9.60
2010,02,20,17,11,9.40
2010,02,20,17,12,9.30
2010,02,20,17,13,9.20
2010,02,20,17,14,9.00
2010,02,20,17,15,8.90
2010,02,20,17,16,8.80
2010,02,20,17,17,8.70
2010,02,20,17,18,8.60
2010,02,20,17,19,8.50
2010,02,20,17,20,8.40
2010,02,20,17,21,8.30
2010,02,20,17,22,8.30
2010,02,20,17,23,8.20
2010,02,20,17,24,8.20
2010,02,20,17,25,8.10
2010,02,20,17,26,8.10
2010,02,20,17,27,8.10
2010,02,20,17,28,8.00
2010,02,20,17,29,8.00
2010,02,20,17,30,7.90
2010,02,20,17,31,7.80
2010,02,20,17,32,7.80
2010,02,20,17,33,7.70
2010,02,20,17,34,7.70
2010,02,20,17,35,7.60
2010,02,20,17,36,7.50
2010,02,20,17,37,7.50
2010,02,20,17,38,7.40
2010,02,20,17,39,7.40
2010,02,20,17,40,7.30
2010,02,20,17,41,7.20
2010,02,20,17,42,7.20
2010,02,20,17,43,7.20
2010,02,20,17,44,7.10
2010,02,20,17,45,7.00
2010,02,20,17,46,7.00
2010,02,20,17,47,6.90
2010,02,20,17,48,6.90
2010,02,20,17,49,6.80
2010,02,20,17,50,6.80
2010,02,20,17,51,6.70
2010,02,20,17,52,6.60
2010,02,20,17,53,6.60
2010,02,20,17,54,6.60
2010,02,20,17,55,6.50
2010,02,20,17,56,6.50